When you browse on this site, cookies collect data to enhance your experience and personalize the content and advertising you see.
Visit our Privacy Policy to learn more. By continuing to use the site, you agree to this use of cookies and data.
  • In Portugal
  • List of Countries
  • For 7 days
  • Water Temperature
  • Weather Map
  • Weather Widgets
  • user-avatar
    Login

    Hourly Weather Nashavar

    Today, 25 August, Sunday

    Time Temperature Precipitation Wind Pressure Humidity
    00:00 +34°C° 0 mm 1 mps 724 mmHg 48%
    01:00 +34°C° 0 mm 1 mps 723 mmHg 49%
    02:00 +33°C° 0 mm 1 mps 723 mmHg 50%
    03:00 +33°C° 0 mm 1 mps 723 mmHg 52%
    04:00 +32°C° 0 mm 1 mps 723 mmHg 54%
    05:00 +31°C° 0 mm 1 mps 723 mmHg 56%
    06:00 +32°C° 0 mm 1 mps 724 mmHg 54%
    07:00 +32°C° 0 mm 2 mps 724 mmHg 52%
    08:00 +34°C° 0 mm 2 mps 724 mmHg 50%
    09:00 +35°C° 0 mm 2 mps 725 mmHg 47%
    10:00 +35°C° 0 mm 1 mps 725 mmHg 44%
    11:00 +36°C° 0 mm 1 mps 725 mmHg 40%
    12:00 +37°C° 0 mm 1 mps 725 mmHg 37%
    13:00 +39°C° 0 mm 1 mps 724 mmHg 34%
    14:00 +40°C° 0 mm 1 mps 724 mmHg 31%
    15:00 +40°C° 0 mm 2 mps 724 mmHg 31%
    16:00 +42°C° 0 mm 3 mps 724 mmHg 30%
    17:00 +42°C° 0 mm 3 mps 723 mmHg 30%
    18:00 +39°C° 0 mm 3 mps 723 mmHg 34%
    19:00 +38°C° 0 mm 2 mps 723 mmHg 38%
    20:00 +37°C° 0 mm 2 mps 723 mmHg 42%
    21:00 +36°C° 0 mm 2 mps 724 mmHg 44%
    22:00 +35°C° 0 mm 1 mps 724 mmHg 45%
    23:00 +34°C° 0 mm 1 mps 724 mmHg 47%

    Tomorrow, 26 August, Monday

    Time Temperature Precipitation Wind Pressure Humidity
    00:00 +34°C° 0 mm 1 mps 724 mmHg 48%
    01:00 +34°C° 0 mm 1 mps 724 mmHg 49%
    02:00 +33°C° 0 mm 1 mps 724 mmHg 50%
    03:00 +33°C° 0 mm 1 mps 724 mmHg 51%
    04:00 +32°C° 0 mm 1 mps 724 mmHg 52%
    05:00 +32°C° 0 mm 2 mps 724 mmHg 54%
    06:00 +32°C° 0 mm 2 mps 724 mmHg 52%
    07:00 +32°C° 0 mm 2 mps 724 mmHg 51%
    08:00 +34°C° 0 mm 2 mps 725 mmHg 50%
    09:00 +35°C° 0 mm 2 mps 725 mmHg 48%
    10:00 +36°C° 0 mm 2 mps 725 mmHg 45%
    11:00 +37°C° 0 mm 2 mps 725 mmHg 43%
    12:00 +38°C° 0 mm 2 mps 725 mmHg 40%
    13:00 +39°C° 0 mm 2 mps 724 mmHg 37%
    14:00 +40°C° 0 mm 2 mps 724 mmHg 34%
    15:00 +40°C° 0 mm 2 mps 724 mmHg 33%
    16:00 +41°C° 0 mm 2 mps 724 mmHg 32%
    17:00 +42°C° 0 mm 3 mps 723 mmHg 31%
    18:00 +40°C° 0 mm 3 mps 723 mmHg 35%
    19:00 +38°C° 0 mm 2 mps 723 mmHg 39%
    20:00 +37°C° 0 mm 2 mps 723 mmHg 43%
    21:00 +37°C° 0 mm 2 mps 723 mmHg 45%
    22:00 +35°C° 0 mm 1 mps 724 mmHg 46%
    23:00 +35°C° 0 mm 1 mps 724 mmHg 48%

    Day after tomorrow, 27 August, Tuesday

    Time Temperature Precipitation Wind Pressure Humidity
    00:00 +34°C° 0 mm 1 mps 723 mmHg 49%
    01:00 +34°C° 0 mm 1 mps 723 mmHg 51%
    02:00 +33°C° 0 mm 1 mps 723 mmHg 52%
    03:00 +33°C° 0.4 mm 1 mps 723 mmHg 55%
    04:00 +32°C° 0.4 mm 1 mps 723 mmHg 58%
    05:00 +31°C° 0.4 mm 1 mps 723 mmHg 61%
    06:00 +31°C° 0.2 mm 1 mps 723 mmHg 60%
    07:00 +32°C° 0.2 mm 1 mps 723 mmHg 58%
    08:00 +32°C° 0.2 mm 1 mps 724 mmHg 56%
    09:00 +33°C° 0 mm 1 mps 724 mmHg 53%
    10:00 +35°C° 0 mm 1 mps 724 mmHg 49%
    11:00 +36°C° 0 mm 1 mps 724 mmHg 45%
    12:00 +37°C° 0 mm 1 mps 724 mmHg 42%
    13:00 +39°C° 0 mm 1 mps 723 mmHg 39%
    14:00 +40°C° 0 mm 2 mps 723 mmHg 36%
    15:00 +40°C° 0 mm 2 mps 723 mmHg 34%
    16:00 +41°C° 0 mm 2 mps 723 mmHg 33%
    17:00 +41°C° 0 mm 2 mps 722 mmHg 32%
    18:00 +40°C° 0 mm 2 mps 723 mmHg 36%
    19:00 +39°C° 0 mm 2 mps 723 mmHg 40%
    20:00 +37°C° 0 mm 2 mps 723 mmHg 44%
    21:00 +37°C° 0 mm 2 mps 723 mmHg 45%
    22:00 +35°C° 0 mm 1 mps 723 mmHg 47%
    23:00 +35°C° 0 mm 1 mps 723 mmHg 48%

    28 August, Wednesday

    Time Temperature Precipitation Wind Pressure Humidity
    00:00 +35°C° 0 mm 1 mps 723 mmHg 50%
    01:00 +34°C° 0 mm 1 mps 723 mmHg 51%
    02:00 +34°C° 0 mm 1 mps 723 mmHg 53%
    03:00 +33°C° 0 mm 1 mps 723 mmHg 54%
    04:00 +33°C° 0 mm 1 mps 723 mmHg 55%
    05:00 +33°C° 0 mm 1 mps 724 mmHg 56%
    06:00 +33°C° 0.1 mm 1 mps 724 mmHg 54%
    07:00 +33°C° 0.1 mm 1 mps 724 mmHg 52%
    08:00 +34°C° 0.1 mm 1 mps 725 mmHg 51%
    09:00 +36°C° 0 mm 2 mps 725 mmHg 48%
    10:00 +37°C° 0 mm 2 mps 725 mmHg 45%
    11:00 +38°C° 0 mm 2 mps 725 mmHg 42%
    12:00 +39°C° 0 mm 2 mps 725 mmHg 39%
    13:00 +40°C° 0 mm 2 mps 724 mmHg 36%
    14:00 +41°C° 0 mm 2 mps 724 mmHg 33%
    15:00 +41°C° 0 mm 2 mps 724 mmHg 33%
    16:00 +41°C° 0 mm 2 mps 723 mmHg 33%
    17:00 +41°C° 0 mm 2 mps 723 mmHg 33%
    18:00 +40°C° 0 mm 2 mps 723 mmHg 36%
    19:00 +39°C° 0 mm 2 mps 723 mmHg 38%
    20:00 +38°C° 0 mm 2 mps 723 mmHg 41%
    21:00 +38°C° 0 mm 2 mps 723 mmHg 43%
    22:00 +36°C° 0 mm 1 mps 723 mmHg 45%
    23:00 +36°C° 0 mm 1 mps 724 mmHg 47%

    29 August, Thursday

    Time Temperature Precipitation Wind Pressure Humidity
    00:00 +35°C° 0 mm 1 mps 724 mmHg 49%
    01:00 +35°C° 0 mm 1 mps 723 mmHg 50%
    02:00 +34°C° 0 mm 1 mps 723 mmHg 52%
    03:00 +34°C° 0 mm 1 mps 724 mmHg 53%
    04:00 +33°C° 0 mm 1 mps 724 mmHg 54%
    05:00 +33°C° 0 mm 1 mps 724 mmHg 54%
    06:00 +33°C° 0 mm 1 mps 724 mmHg 52%
    07:00 +34°C° 0 mm 1 mps 724 mmHg 50%
    08:00 +35°C° 0 mm 2 mps 725 mmHg 48%
    09:00 +36°C° 0 mm 1 mps 725 mmHg 45%
    10:00 +37°C° 0 mm 1 mps 725 mmHg 42%
    11:00 +39°C° 0 mm 1 mps 725 mmHg 39%
    12:00 +40°C° 0 mm 1 mps 724 mmHg 36%
    13:00 +41°C° 0 mm 1 mps 724 mmHg 33%
    14:00 +42°C° 0 mm 1 mps 723 mmHg 31%
    15:00 +42°C° 0 mm 2 mps 723 mmHg 30%
    16:00 +42°C° 0 mm 2 mps 723 mmHg 29%
    17:00 +43°C° 0 mm 2 mps 722 mmHg 28%
    18:00 +41°C° 0 mm 2 mps 722 mmHg 32%
    19:00 +40°C° 0 mm 2 mps 722 mmHg 36%
    20:00 +39°C° 0 mm 2 mps 722 mmHg 40%
    21:00 +38°C° 0 mm 2 mps 722 mmHg 43%
    22:00 +36°C° 0 mm 1 mps 722 mmHg 45%
    23:00 +36°C° 0 mm 1 mps 722 mmHg 47%

    30 August, Friday

    Time Temperature Precipitation Wind Pressure Humidity
    00:00 +35°C° 0 mm 1 mps 722 mmHg 48%
    01:00 +35°C° 0 mm 1 mps 722 mmHg 50%
    02:00 +35°C° 0 mm 1 mps 722 mmHg 51%
    03:00 +34°C° 0 mm 1 mps 722 mmHg 52%
    04:00 +34°C° 0 mm 1 mps 722 mmHg 53%
    05:00 +33°C° 0 mm 1 mps 722 mmHg 55%
    06:00 +34°C° 0 mm 1 mps 722 mmHg 53%
    07:00 +34°C° 0 mm 1 mps 722 mmHg 51%
    08:00 +35°C° 0 mm 1 mps 722 mmHg 49%
    09:00 +36°C° 0 mm 1 mps 722 mmHg 45%
    10:00 +37°C° 0 mm 1 mps 722 mmHg 41%
    11:00 +40°C° 0 mm 1 mps 722 mmHg 38%
    12:00 +41°C° 0 mm 2 mps 722 mmHg 34%
    13:00 +42°C° 0 mm 2 mps 722 mmHg 30%
    14:00 +43°C° 0 mm 2 mps 721 mmHg 27%
    15:00 +43°C° 0 mm 2 mps 721 mmHg 27%
    16:00 +43°C° 0 mm 2 mps 721 mmHg 27%
    17:00 +44°C° 0 mm 3 mps 720 mmHg 27%
    18:00 +43°C° 0 mm 3 mps 720 mmHg 31%
    19:00 +40°C° 0 mm 2 mps 720 mmHg 36%
    20:00 +39°C° 0 mm 2 mps 720 mmHg 40%
    21:00 +38°C° 0 mm 2 mps 721 mmHg 42%
    22:00 +37°C° 0 mm 1 mps 721 mmHg 44%
    23:00 +36°C° 0 mm 1 mps 721 mmHg 46%
    Show more